Погода в Куралово

Россия / Республика Татарстан     55°02′51″N   49°25′56″E
темп.,
°C
ветер,
м/с
пор.,
м/с
влажн.,
%
обл.,
%
осадки,
мм/ч
давл.,
гПа
погр.,
м
23 апреля, пт
пт2300:00+6ю5117855 0.0 1025309
03:00+5ю598680 0.0 1025218
06:00+5ююв478799 0.0 1025247
09:00+9ю457079 0.0 1026514
12:00+14юв345846 0.1 10241173
15:00+14в3354100 0.4 10221175
18:00+13вюв3663100 0.1 1022175
21:00+9в3573100 0.1 102071
24 апреля, сб
сб2400:00+8в3478100 0.0 101875
03:00+7вюв3584100 0.0 1017117
06:00+7вюв2488100 0.0 1015167
09:00+8в3484100 0.2 1014460
12:00+7вюв3589100 0.9 1013336
15:00+9вюв3481100 1.1 1011452
18:00+10юв478193 0.1 1010336
21:00+9ююв51184100 0.2 1009370
25 апреля, вс
вс2500:00+8ююв71385100 0.4 1006374
03:00+6зюз7992100 4.4 1006906
06:00+6зюз51078100 1.3 10071085
09:00+8зюз810595 1.6 10081443
12:00+9юз9104999 0.1 10092286
15:00+9зюз9114694 0.4 10102097
18:00+7зюз6106760 0.1 1012930
21:00+6юз61265100 0.8 1014602
26 апреля, пн
пн2600:00+4юз612760 0.0 1016365
03:00+2ююз511785 0.0 1017245
06:00+5ююз61465100 0.0 1016462
09:00+9юз9145098 0.0 10161510
12:00+11юз91343100 0.0 10152092
15:00+12зюз71044100 0.0 10152046
18:00+7ссв2374100 0.0 101489
21:00+6всв2278100 0.0 101330
27 апреля, вт
вт2700:00+6всв2275100 0.0 101138
03:00+5всв2275100 0.0 101023
06:00+6вюв12676 0.0 100985
09:00+11ююв24455 0.0 10071035
12:00+13ююз4638100 0.0 10052449
15:00+12ююз694881 0.1 10051739
18:00+7зюз8136681 1.8 10061191
21:00+5зюз712745 1.8 1006654